Regional Weather Roundup
Issued by NWS Midland/Odessa, TX

Current Version | Previous Version | Text Only | Print | Product List | Glossary On
Versions: 1 2 3 4 5 6 7 8 9 10 11 12 13 14 15 16 17 18 19 20 21 22 23 24 25 26 27 28 29 30 31 32 33 34 35 36 37 38 39 40 41 42 43 44 45 46 47 48 49 50
000
ASUS44 KMAF 202201
RWRMAF
MIDLAND AREA WEATHER ROUNDUP
NATIONAL WEATHER SERVICE MIDLAND TX
500 PM CDT WED SEP 20 2017

...IN SOUTHWEST TEXAS AND SOUTHEAST NEW MEXICO...

CITY           SKY/WX    TMP DP  RH WIND       PRES   REMARKS
ALPINE         MOSUNNY   92  48  22 W13       30.03F
ANDREWS        FAIR      98  44  16 SW21G26   29.87F
ARTESIA        SUNNY     95  32  11 W10G20    29.85F
BIG SPRING     MOSUNNY   98  47  17 SW6       29.84F
CARLSBAD       SUNNY     96  34  11 W21       29.84F
DRYDEN           N/A     90  63  40 SE15G23   29.86R
FORT STOCKTON  MOSUNNY   96  51  21 VRB3      29.87F
GUAD PASS      SUNNY     87  40  19 W29G39    30.04F
HOBBS          SUNNY     95  37  13 SW12G18   29.89F
MARFA          MOSUNNY   89  52  28 W9G17     30.03F
MIDLAND AIRPK  SUNNY    100  42  13 W8        29.85F
MIDLAND INTL   MOSUNNY   99  46  16 SW8       29.84F
ODESSA         MOSUNNY   96  45  17 W6        29.86F
PECOS          MOSUNNY   99  53  21 SW12G20   29.82F
PRESIDIO       FAIR      97  54  23 S6G16     29.87F
SEMINOLE       SUNNY     96  41  14 SW10G20   29.88F
SNYDER         SUNNY     99  52  20 SW7       29.83F
WINK           SUNNY     99  45  15 W12       29.83F
$$
...OTHER STATIONS IN TEXAS...

CITY           SKY/WX    TMP DP  RH WIND       PRES   REMARKS
ABILENE        SUNNY     99  61  28 S14G21    29.79F
AMARILLO       SUNNY     82  41  23 CALM      29.93F
AUSTIN         MOSUNNY   94  72  48 S12       29.83F HX 102
BROWNSVILLE    MOSUNNY   89  75  63 SE18      29.83F
CORPUS CHRISTI PTSUNNY   91  76  61 SE21      29.82F HX 103
DALLAS FTW     MOSUNNY   98  69  38 S16G24    29.79F HX 104
DEL RIO        CLOUDY    95  69  42 SE9       29.79S HX 100
EL PASO        MOSUNNY   92  42  17 W13G21    29.94F
HOUSTON INT    LGT RAIN  85  75  72 S5        29.88S
LUBBOCK        MOSUNNY   91  46  21 N8        29.89F
SAN ANGELO     SUNNY    101  59  24 S14G21    29.80F HX 101
SAN ANTONIO    MOSUNNY   96  69  41 SE16G22   29.83F HX 102
WACO           SUNNY     97  69  40 S16       29.82F HX 103
WICHITA FALLS  NOT AVBL
$$
...OTHER LOCATIONS IN NEW MEXICO...

CITY           SKY/WX    TMP DP  RH WIND       PRES   REMARKS
ALAMOGORDO     SUNNY     90  37  15 SW5       29.96F
ALBUQUERQUE    SUNNY     83  24  11 S6        29.99F
CANNON AFB     SUNNY     87  37  17 CALM      29.94F
CLOVIS         SUNNY     87  41  19 S9        29.94F
HOLLOMAN AFB   SUNNY     91  37  15 CALM        N/A
ROSWELL        SUNNY     94  37  13 SE12G17   29.87F
RUIDOSO        SUNNY     79  27  14 S12       30.13F
SANTA FE       SUNNY     80  20  10 W14G26    30.05F
TRUTH OR CONSE SUNNY     89  33  13 S14G23    29.95F
TUCUMCARI      SUNNY     82  35  18 E7        29.91F
$$




USA.gov is the U.S. government's official web portal to all federal, state and local government web resources and services.